Regional Weather Roundup
Issued by NWS Northern Indiana

Home | Current Version | Previous Version | Graphics & Text | Print | Product List | Glossary Off
Versions: 1 2 3 4 5 6 7 8 9 10 11 12 13 14 15 16 17 18 19 20 21 22 23 24 25 26 27 28 29 30 31 32 33 34 35 36 37 38 39 40 41 42 43 44 45 46 47 48 49 50

000
ASUS43 KIWX 100510
RWRIWX

KIWX WEATHER ROUNDUP
NATIONAL WEATHER SERVICE NORTHERN INDIANA
100 AM EDT THU JUL 10 2014

NOTE: "FAIR" INDICATES FEW OR NO CLOUDS BELOW 12,000 FEET WITH NO
SIGNIFICANT WEATHER AND/OR OBSTRUCTIONS TO VISIBILITY.

* THESE STATIONS ARE NOT UNDER NWS QUALITY CONTROL. THEY ALSO MAY NOT
  REPORT WEATHER SUCH AS PRECIPITATION OR FOG.

INZ001>027-100600-
NORTHERN INDIANA

CITY           SKY/WX    TMP DP  RH WIND       PRES   REMARKS
GARY*          CLEAR     62  60  93 CALM      30.07S
VALPARAISO     CLEAR     59  56  89 CALM      30.08R
MICHIGAN CITY* CLEAR     57  55  94 CALM      30.07S
LAPORTE*       CLEAR     55  55  98 CALM      30.08R
KNOX*          CLEAR     56  53  90 CALM      30.07R
SOUTH BEND     CLEAR     62  55  77 N5        30.07S
GOSHEN         CLEAR     60  55  83 N6        30.06R
MONTICELLO*    MOCLDY    66  58  73 NE3       30.05R
LOGANSPORT*    CLOUDY    64  54  68 NE3       30.06S
ROCHESTER*     CLEAR     63  55  77 CALM      30.07S
WARSAW*        CLEAR     59  55  88 CALM      30.06S
ANGOLA*        CLEAR     59  55  88 CALM      30.06R
FORT WAYNE     PTCLDY    64  56  75 N5        30.06R
HUNTINGTON*    CLOUDY    63  57  81 CALM      30.05S
PERU/GRISSOM   CLOUDY    67  60  77 NE7       30.05S
MARION*        CLOUDY    66  56  70 NE5       30.06R

$$
INZ028>050-100600-
CENTRAL INDIANA

CITY           SKY/WX    TMP DP  RH WIND       PRES   REMARKS
LAFAYETTE      CLEAR     65  58  78 NE7       30.05R
KOKOMO*        CLOUDY    68  57  68 N6        30.06S
MUNCIE*        PTCLDY    63  58  83 NE3       30.04S
INDIANAPOLIS   CLEAR     66  56  70 W5        30.03S

$$
MIZ043>046-050>051-056>058-064>065-071>073-077>080-100600-
SOUTHWEST LOWER MICHIGAN

CITY           SKY/WX    TMP DP  RH WIND       PRES   REMARKS
COLDWATER*     CLEAR     57  56  94 CALM      30.07R
HILLSDALE*     CLEAR     57  57 100 CALM      30.07R
GRAND RAPIDS   CLEAR     61  53  75 N3        30.07R
STURGIS*       CLEAR     59  55  88 NW3       30.07R
THREE RIVERS*  FAIR      61  57  86 CALM      30.07S

$$
OHZ001>008-015>018-024>025-100600-
NORTHWEST OHIO

CITY           SKY/WX    TMP DP  RH WIND       PRES   REMARKS
WAUSEON*       FAIR      57  54  88 CALM      30.05S
DEFIANCE       PTCLDY    59  55  87 N3        30.05R
TOLEDO EXPRESS CLEAR     63  56  78 NW5       30.04R
TOLEDO METCALF CLEAR     65  56  72 NW3       30.04R

$$
&&



USA.gov is the U.S. government's official web portal to all federal, state and local government web resources and services.